Time,TemperatureF,DewpointF,PressureIn,WindDirection,WindDirectionDegrees,WindSpeedMPH,WindSpeedGustMPH,Humidity,HourlyPrecipIn,Conditions,Clouds,dailyrainin,SoftwareType,DateUTC
2013-01-30 00:02:00,39.9,30.2,32.89,WNW,302,6.0,16.0,68,0.00,OVC,OVC,0.00,WeatherDisplay:10.23,2013-01-30 08:02:00,
2013-01-30 00:08:00,40.0,30.3,32.89,WNW,298,6.0,12.0,68,0.00,OVC,OVC,0.00,WeatherDisplay:10.23,2013-01-30 08:08:00,
2013-01-30 00:17:00,39.8,29.8,32.89,WNW,297,5.0,8.0,67,0.00,OVC,OVC,0.00,WeatherDisplay:10.23,2013-01-30 08:17:00,
2013-01-30 00:23:00,39.9,29.8,32.89,NW,313,2.0,10.0,67,0.00,OVC,OVC,0.00,WeatherDisplay:10.23,2013-01-30 08:23:00,
2013-01-30 00:32:00,39.7,29.7,32.89,NW,313,3.0,7.0,67,0.00,OVC,OVC,0.00,WeatherDisplay:10.23,2013-01-30 08:32:00,
2013-01-30 00:38:00,39.7,29.7,32.89,WNW,298,1.0,5.0,67,0.00,OVC,OVC,0.00,WeatherDisplay:10.23,2013-01-30 08:38:00,
2013-01-30 00:47:00,39.5,29.5,32.89,NW,315,0.0,0.0,67,0.00,OVC,OVC,0.00,WeatherDisplay:10.23,2013-01-30 08:47:00,
2013-01-30 00:53:00,39.3,29.6,32.89,NW,315,2.0,3.0,68,0.00,CLR,CLR,0.00,WeatherDisplay:10.23,2013-01-30 08:53:00,
2013-01-30 01:02:00,38.1,29.5,32.89,SW,231,5.0,6.0,71,0.00,CLR,CLR,0.00,WeatherDisplay:10.23,2013-01-30 09:02:00,
2013-01-30 01:08:00,37.7,29.8,32.89,South,178,1.0,7.0,73,0.00,CLR,CLR,0.00,WeatherDisplay:10.23,2013-01-30 09:08:00,
2013-01-30 01:17:00,38.2,29.9,32.89,ESE,115,1.0,7.0,72,0.00,CLR,CLR,0.00,WeatherDisplay:10.23,2013-01-30 09:17:00,
2013-01-30 01:23:00,38.0,30.1,32.89,ESE,113,0.0,3.0,73,0.00,CLR,CLR,0.00,WeatherDisplay:10.23,2013-01-30 09:23:00,
2013-01-30 01:32:00,38.2,30.3,32.89,SE,130,1.0,5.0,73,0.00,CLR,CLR,0.00,WeatherDisplay:10.23,2013-01-30 09:32:00,
2013-01-30 01:38:00,38.3,30.4,32.89,SE,135,0.0,2.0,73,0.00,CLR,CLR,0.00,WeatherDisplay:10.23,2013-01-30 09:38:00,
2013-01-30 01:47:00,37.9,30.0,32.89,SE,135,3.0,5.0,73,0.00,CLR,CLR,0.00,WeatherDisplay:10.23,2013-01-30 09:47:00,
2013-01-30 01:53:00,37.9,30.4,32.89,SE,135,3.0,5.0,74,0.00,CLR,CLR,0.00,WeatherDisplay:10.23,2013-01-30 09:53:00,
2013-01-30 02:02:00,37.6,30.4,32.89,SE,135,3.0,5.0,75,0.00,CLR,CLR,0.00,WeatherDisplay:10.23,2013-01-30 10:02:00,
2013-01-30 02:08:00,37.5,30.3,32.89,SE,135,3.0,5.0,75,0.00,CLR,CLR,0.00,WeatherDisplay:10.23,2013-01-30 10:08:00,
2013-01-30 02:16:00,37.3,30.4,32.89,SE,135,2.0,6.0,76,0.00,CLR,CLR,0.00,WeatherDisplay:10.23,2013-01-30 10:16:00,
2013-01-30 02:22:00,37.4,30.2,32.89,SE,135,3.0,6.0,75,0.00,CLR,CLR,0.00,WeatherDisplay:10.23,2013-01-30 10:22:00,
2013-01-30 02:31:00,37.1,30.2,32.89,SE,135,1.0,3.0,76,0.00,CLR,CLR,0.00,WeatherDisplay:10.23,2013-01-30 10:31:00,
2013-01-30 02:38:00,36.9,30.4,32.89,SE,135,1.0,2.0,77,0.00,CLR,CLR,0.00,WeatherDisplay:10.23,2013-01-30 10:38:00,
2013-01-30 02:47:00,36.8,30.3,32.89,SE,135,0.0,0.0,77,0.00,CLR,CLR,0.00,WeatherDisplay:10.23,2013-01-30 10:47:00,
2013-01-30 02:53:00,36.7,30.5,32.89,SE,135,2.0,2.0,78,0.00,CLR,CLR,0.00,WeatherDisplay:10.23,2013-01-30 10:53:00,
2013-01-30 03:02:00,36.5,30.3,32.89,SE,135,0.0,2.0,78,0.00,CLR,CLR,0.00,WeatherDisplay:10.23,2013-01-30 11:02:00,
2013-01-30 03:08:00,36.3,30.1,32.89,SE,135,2.0,3.0,78,0.00,CLR,CLR,0.00,WeatherDisplay:10.23,2013-01-30 11:08:00,
2013-01-30 03:17:00,36.5,30.3,32.89,SE,135,0.0,3.0,78,0.00,CLR,CLR,0.00,WeatherDisplay:10.23,2013-01-30 11:17:00,
2013-01-30 03:23:00,36.4,30.2,32.89,SE,135,0.0,1.0,78,0.00,CLR,CLR,0.00,WeatherDisplay:10.23,2013-01-30 11:23:00,
2013-01-30 03:32:00,36.1,30.2,32.89,SE,135,0.0,3.0,79,0.00,CLR,CLR,0.00,WeatherDisplay:10.23,2013-01-30 11:32:00,
2013-01-30 03:38:00,35.9,30.0,32.89,SE,135,5.0,5.0,79,0.00,CLR,CLR,0.00,WeatherDisplay:10.23,2013-01-30 11:38:00,
2013-01-30 03:47:00,36.2,30.0,32.89,SE,135,2.0,3.0,78,0.00,CLR,CLR,0.00,WeatherDisplay:10.23,2013-01-30 11:47:00,
2013-01-30 03:53:00,36.2,30.0,32.89,SE,135,3.0,5.0,78,0.00,CLR,CLR,0.00,WeatherDisplay:10.23,2013-01-30 11:53:00,
2013-01-30 04:02:00,36.2,30.3,32.89,SE,135,3.0,5.0,79,0.00,CLR,CLR,0.00,WeatherDisplay:10.23,2013-01-30 12:02:00,
2013-01-30 04:08:00,36.1,30.2,32.89,SE,135,5.0,6.0,79,0.00,CLR,CLR,0.00,WeatherDisplay:10.23,2013-01-30 12:08:00,
2013-01-30 04:16:00,35.9,30.0,32.89,East,97,5.0,7.0,79,0.00,CLR,CLR,0.00,WeatherDisplay:10.23,2013-01-30 12:16:00,
2013-01-30 04:22:00,35.9,30.0,32.89,East,90,3.0,3.0,79,0.00,CLR,CLR,0.00,WeatherDisplay:10.23,2013-01-30 12:22:00,
2013-01-30 04:33:00,36.1,30.2,32.89,ESE,102,5.0,7.0,79,0.00,CLR,CLR,0.00,WeatherDisplay:10.23,2013-01-30 12:33:00,
2013-01-30 04:38:00,36.1,30.3,32.89,ESE,113,2.0,6.0,79,0.00,CLR,CLR,0.00,WeatherDisplay:10.23,2013-01-30 12:38:00,
2013-01-30 04:47:00,36.1,30.2,32.89,ESE,113,3.0,5.0,79,0.00,CLR,CLR,0.00,WeatherDisplay:10.23,2013-01-30 12:47:00,
2013-01-30 04:53:00,36.0,30.1,32.89,ESE,117,2.0,6.0,79,0.00,CLR,CLR,0.00,WeatherDisplay:10.23,2013-01-30 12:53:00,
2013-01-30 05:02:00,35.7,30.1,32.89,SE,135,1.0,5.0,80,0.00,CLR,CLR,0.00,WeatherDisplay:10.23,2013-01-30 13:02:00,
2013-01-30 05:08:00,35.6,30.0,32.89,SE,135,2.0,5.0,80,0.00,CLR,CLR,0.00,WeatherDisplay:10.23,2013-01-30 13:08:00,
2013-01-30 05:17:00,35.5,30.0,32.89,SE,135,2.0,3.0,80,0.00,CLR,CLR,0.00,WeatherDisplay:10.23,2013-01-30 13:17:00,
2013-01-30 05:23:00,35.6,30.0,32.89,SE,135,5.0,5.0,80,0.00,CLR,CLR,0.00,WeatherDisplay:10.23,2013-01-30 13:23:00,
2013-01-30 05:32:00,35.8,30.2,32.89,SE,135,0.0,5.0,80,0.00,CLR,CLR,0.00,WeatherDisplay:10.23,2013-01-30 13:32:00,
2013-01-30 05:38:00,35.8,30.0,32.89,SE,135,0.0,3.0,79,0.00,CLR,CLR,0.00,WeatherDisplay:10.23,2013-01-30 13:38:00,
2013-01-30 05:47:00,36.1,29.9,32.89,SE,135,2.0,3.0,78,0.00,CLR,CLR,0.00,WeatherDisplay:10.23,2013-01-30 13:47:00,
2013-01-30 05:53:00,36.4,29.9,32.89,SE,135,1.0,5.0,77,0.00,CLR,CLR,0.00,WeatherDisplay:10.23,2013-01-30 13:53:00,
2013-01-30 06:02:00,36.4,30.2,32.89,SE,135,5.0,6.0,78,0.00,CLR,CLR,0.00,WeatherDisplay:10.23,2013-01-30 14:02:00,
2013-01-30 06:08:00,36.5,30.3,32.89,SE,135,3.0,6.0,78,0.00,CLR,CLR,0.00,WeatherDisplay:10.23,2013-01-30 14:08:00,
2013-01-30 06:16:00,36.3,30.4,32.89,SE,135,5.0,7.0,79,0.00,CLR,CLR,0.00,WeatherDisplay:10.23,2013-01-30 14:16:00,
2013-01-30 06:22:00,36.2,30.3,32.89,ESE,118,2.0,7.0,79,0.00,CLR,CLR,0.00,WeatherDisplay:10.23,2013-01-30 14:22:00,
2013-01-30 06:32:00,36.5,30.6,32.89,East,90,1.0,5.0,79,0.00,CLR,CLR,0.00,WeatherDisplay:10.23,2013-01-30 14:32:00,
2013-01-30 06:38:00,36.5,30.9,32.89,East,90,3.0,5.0,80,0.00,CLR,CLR,0.00,WeatherDisplay:10.23,2013-01-30 14:38:00,
2013-01-30 06:47:00,36.6,31.0,32.89,East,90,0.0,5.0,80,0.00,OVC,OVC,0.00,WeatherDisplay:10.23,2013-01-30 14:47:00,
2013-01-30 06:53:00,36.5,30.9,32.89,East,90,2.0,3.0,80,0.00,OVC,OVC,0.00,WeatherDisplay:10.23,2013-01-30 14:53:00,
2013-01-30 07:02:00,36.7,30.8,32.89,East,90,2.0,3.0,79,0.00,OVC,OVC,0.00,WeatherDisplay:10.23,2013-01-30 15:02:00,
2013-01-30 07:08:00,36.6,30.7,32.89,East,90,5.0,5.0,79,0.00,OVC,OVC,0.00,WeatherDisplay:10.23,2013-01-30 15:08:00,
2013-01-30 07:17:00,36.7,30.8,32.89,East,90,2.0,3.0,79,0.00,OVC,OVC,0.00,WeatherDisplay:10.23,2013-01-30 15:17:00,
2013-01-30 07:23:00,36.7,30.8,32.89,East,99,2.0,5.0,79,0.00,OVC,OVC,0.00,WeatherDisplay:10.23,2013-01-30 15:23:00,
2013-01-30 07:32:00,36.8,30.9,32.89,ESE,119,2.0,6.0,79,0.00,OVC,OVC,0.00,WeatherDisplay:10.23,2013-01-30 15:32:00,
2013-01-30 07:38:00,36.9,31.0,32.89,SE,128,2.0,3.0,79,0.00,OVC,OVC,0.00,WeatherDisplay:10.23,2013-01-30 15:38:00,
2013-01-30 07:47:00,36.6,30.7,32.89,SE,135,5.0,6.0,79,0.00,CLR,CLR,0.00,WeatherDisplay:10.23,2013-01-30 15:47:00,
2013-01-30 07:53:00,36.7,30.5,32.89,SE,138,6.0,6.0,78,0.00,CLR,CLR,0.00,WeatherDisplay:10.23,2013-01-30 15:53:00,
2013-01-30 08:02:00,37.1,30.6,32.89,SSE,158,5.0,6.0,77,0.00,CLR,CLR,0.00,WeatherDisplay:10.23,2013-01-30 16:02:00,
2013-01-30 08:08:00,37.2,30.7,32.89,SSE,158,1.0,8.0,77,0.00,CLR,CLR,0.00,WeatherDisplay:10.23,2013-01-30 16:08:00,
2013-01-30 08:16:00,37.4,30.8,32.89,SSE,158,2.0,3.0,77,0.00,CLR,CLR,0.00,WeatherDisplay:10.23,2013-01-30 16:16:00,
2013-01-30 08:22:00,37.4,30.9,32.89,SSE,158,1.0,5.0,77,0.00,CLR,CLR,0.00,WeatherDisplay:10.23,2013-01-30 16:22:00,
2013-01-30 08:32:00,37.6,30.7,32.89,SSE,164,6.0,8.0,76,0.00,CLR,CLR,0.00,WeatherDisplay:10.23,2013-01-30 16:32:00,
2013-01-30 08:38:00,37.8,30.9,32.89,SSE,155,7.0,12.0,76,0.00,CLR,CLR,0.00,WeatherDisplay:10.23,2013-01-30 16:38:00,
2013-01-30 08:47:00,38.2,31.3,32.89,SE,130,2.0,5.0,76,0.00,CLR,CLR,0.00,WeatherDisplay:10.23,2013-01-30 16:47:00,
2013-01-30 08:53:00,38.5,31.3,32.89,SE,135,1.0,8.0,75,0.00,CLR,CLR,0.00,WeatherDisplay:10.23,2013-01-30 16:53:00,
2013-01-30 09:02:00,38.9,31.6,32.89,SE,135,5.0,6.0,75,0.00,CLR,CLR,0.00,WeatherDisplay:10.23,2013-01-30 17:02:00,
2013-01-30 09:08:00,38.9,31.3,32.89,SE,135,0.0,5.0,74,0.00,CLR,CLR,0.00,WeatherDisplay:10.23,2013-01-30 17:08:00,
2013-01-30 09:17:00,39.3,32.1,32.89,SE,135,2.0,3.0,75,0.00,CLR,CLR,0.00,WeatherDisplay:10.23,2013-01-30 17:17:00,
2013-01-30 09:23:00,39.4,31.8,32.89,SE,135,3.0,5.0,74,0.00,CLR,CLR,0.00,WeatherDisplay:10.23,2013-01-30 17:23:00,
2013-01-30 09:32:00,39.2,32.6,32.89,ESE,121,2.0,6.0,77,0.00,CLR,CLR,0.00,WeatherDisplay:10.23,2013-01-30 17:32:00,
2013-01-30 09:38:00,39.4,32.8,32.89,ESE,113,3.0,5.0,77,0.00,CLR,CLR,0.00,WeatherDisplay:10.23,2013-01-30 17:38:00,
2013-01-30 09:47:00,39.9,33.0,32.89,ESE,113,1.0,3.0,76,0.00,CLR,CLR,0.00,WeatherDisplay:10.23,2013-01-30 17:47:00,
2013-01-30 09:53:00,40.1,32.5,32.89,ESE,113,3.0,5.0,74,0.00,CLR,CLR,0.00,WeatherDisplay:10.23,2013-01-30 17:53:00,
2013-01-30 10:02:00,40.7,33.4,32.89,ESE,113,0.0,3.0,75,0.00,CLR,CLR,0.00,WeatherDisplay:10.23,2013-01-30 18:02:00,
2013-01-30 10:08:00,41.0,33.7,32.89,ESE,113,1.0,3.0,75,0.00,CLR,CLR,0.00,WeatherDisplay:10.23,2013-01-30 18:08:00,
2013-01-30 10:16:00,41.7,33.4,32.89,ESE,113,0.0,2.0,72,0.00,CLR,CLR,0.00,WeatherDisplay:10.23,2013-01-30 18:16:00,
2013-01-30 10:22:00,41.9,33.5,32.89,ESE,113,0.0,2.0,72,0.00,CLR,CLR,0.00,WeatherDisplay:10.23,2013-01-30 18:22:00,
2013-01-30 10:27:00,42.1,33.7,32.89,ESE,113,0.0,1.0,72,0.00,CLR,CLR,0.00,WeatherDisplay:10.23,2013-01-30 18:27:00,
2013-01-30 10:32:00,42.3,33.6,32.89,ESE,113,0.0,1.0,71,0.00,CLR,CLR,0.00,WeatherDisplay:10.23,2013-01-30 18:32:00,
2013-01-30 10:38:00,42.5,34.1,32.89,ESE,113,0.0,1.0,72,0.00,CLR,CLR,0.00,WeatherDisplay:10.23,2013-01-30 18:38:00,
2013-01-30 10:47:00,43.4,34.3,32.89,ESE,113,0.0,1.0,70,0.00,CLR,CLR,0.00,WeatherDisplay:10.23,2013-01-30 18:47:00,
2013-01-30 10:53:00,44.0,34.9,32.89,ESE,113,0.0,1.0,70,0.00,CLR,CLR,0.00,WeatherDisplay:10.23,2013-01-30 18:53:00,
2013-01-30 11:02:00,45.0,34.7,32.89,SSW,204,3.0,5.0,67,0.00,CLR,CLR,0.00,WeatherDisplay:10.23,2013-01-30 19:02:00,
2013-01-30 11:08:00,45.5,35.2,32.89,WSW,257,3.0,5.0,67,0.00,CLR,CLR,0.00,WeatherDisplay:10.23,2013-01-30 19:08:00,
2013-01-30 11:17:00,45.0,35.1,32.89,WNW,292,5.0,5.0,68,0.00,CLR,CLR,0.00,WeatherDisplay:10.23,2013-01-30 19:17:00,
2013-01-30 11:23:00,45.5,35.2,32.89,WNW,288,1.0,9.0,67,0.00,CLR,CLR,0.00,WeatherDisplay:10.23,2013-01-30 19:23:00,
2013-01-30 11:32:00,46.3,35.6,32.89,SW,236,3.0,7.0,66,0.00,CLR,CLR,0.00,WeatherDisplay:10.23,2013-01-30 19:32:00,
2013-01-30 11:38:00,46.8,35.3,32.89,WNW,283,3.0,9.0,64,0.00,CLR,CLR,0.00,WeatherDisplay:10.23,2013-01-30 19:38:00,
2013-01-30 11:47:00,46.9,35.4,32.89,NW,316,2.0,9.0,64,0.00,CLR,CLR,0.00,WeatherDisplay:10.23,2013-01-30 19:47:00,
2013-01-30 11:54:00,47.2,35.7,32.89,NW,320,1.0,3.0,64,0.00,CLR,CLR,0.00,WeatherDisplay:10.23,2013-01-30 19:54:00,
2013-01-30 12:02:00,47.6,35.6,32.89,NW,326,9.0,12.0,63,0.00,CLR,CLR,0.00,WeatherDisplay:10.23,2013-01-30 20:02:00,
2013-01-30 12:07:00,47.7,35.7,32.89,NW,313,3.0,9.0,63,0.00,CLR,CLR,0.00,WeatherDisplay:10.23,2013-01-30 20:07:00,
2013-01-30 12:16:00,47.8,35.4,32.89,WNW,289,7.0,15.0,62,0.00,CLR,CLR,0.00,WeatherDisplay:10.23,2013-01-30 20:16:00,
2013-01-30 12:22:00,47.8,35.8,32.89,WNW,292,5.0,9.0,63,0.00,CLR,CLR,0.00,WeatherDisplay:10.23,2013-01-30 20:22:00,
2013-01-30 12:27:00,47.9,35.5,32.89,WNW,294,6.0,9.0,62,0.00,CLR,CLR,0.00,WeatherDisplay:10.23,2013-01-30 20:27:00,
2013-01-30 12:32:00,47.9,35.5,32.89,WNW,294,3.0,8.0,62,0.00,CLR,CLR,0.00,WeatherDisplay:10.23,2013-01-30 20:32:00,
2013-01-30 12:38:00,47.9,35.5,32.89,WNW,291,6.0,12.0,62,0.00,CLR,CLR,0.00,WeatherDisplay:10.23,2013-01-30 20:38:00,
2013-01-30 12:47:00,47.7,35.3,32.89,NW,305,6.0,9.0,62,0.00,CLR,CLR,0.00,WeatherDisplay:10.23,2013-01-30 20:47:00,
2013-01-30 12:53:00,47.6,35.6,32.89,WNW,299,5.0,10.0,63,0.00,OVC,OVC,0.00,WeatherDisplay:10.23,2013-01-30 20:53:00,
2013-01-30 13:02:00,47.6,35.6,32.89,WNW,299,6.0,12.0,63,0.00,OVC,OVC,0.00,WeatherDisplay:10.23,2013-01-30 21:02:00,
2013-01-30 13:08:00,47.4,35.5,32.89,WNW,300,8.0,10.0,63,0.00,OVC,OVC,0.00,WeatherDisplay:10.23,2013-01-30 21:08:00,
2013-01-30 13:17:00,47.2,35.2,32.89,WNW,298,8.0,13.0,63,0.00,OVC,OVC,0.00,WeatherDisplay:10.23,2013-01-30 21:17:00,
2013-01-30 13:23:00,47.2,35.7,32.89,WNW,298,6.0,12.0,64,0.00,OVC,OVC,0.00,WeatherDisplay:10.23,2013-01-30 21:23:00,
2013-01-30 13:32:00,47.2,35.7,32.89,WNW,292,6.0,13.0,64,0.00,OVC,OVC,0.00,WeatherDisplay:10.23,2013-01-30 21:32:00,
2013-01-30 13:38:00,47.2,35.7,32.89,WNW,297,7.0,10.0,64,0.00,OVC,OVC,0.00,WeatherDisplay:10.23,2013-01-30 21:38:00,
2013-01-30 13:47:00,47.1,35.6,32.89,WNW,292,5.0,13.0,64,0.00,OVC,OVC,0.00,WeatherDisplay:10.23,2013-01-30 21:47:00,
2013-01-30 13:53:00,47.1,36.0,32.89,WNW,290,5.0,9.0,65,0.00,OVC,OVC,0.00,WeatherDisplay:10.23,2013-01-30 21:53:00,
2013-01-30 14:02:00,47.0,35.9,32.89,WNW,284,8.0,13.0,65,0.00,OVC,OVC,0.00,WeatherDisplay:10.23,2013-01-30 22:02:00,
2013-01-30 14:08:00,47.0,35.5,32.89,West,281,9.0,13.0,64,0.00,OVC,OVC,0.00,WeatherDisplay:10.23,2013-01-30 22:08:00,
2013-01-30 14:16:00,47.0,35.9,32.89,WNW,286,7.0,15.0,65,0.00,OVC,OVC,0.00,WeatherDisplay:10.23,2013-01-30 22:16:00,
2013-01-30 14:22:00,47.1,35.6,32.89,WNW,286,8.0,17.0,64,0.00,OVC,OVC,0.00,WeatherDisplay:10.23,2013-01-30 22:22:00,
2013-01-30 14:27:00,47.2,35.7,32.89,WNW,288,7.0,10.0,64,0.00,OVC,OVC,0.00,WeatherDisplay:10.23,2013-01-30 22:27:00,
2013-01-30 14:32:00,47.3,35.8,32.89,WNW,292,5.0,12.0,64,0.00,OVC,OVC,0.00,WeatherDisplay:10.23,2013-01-30 22:32:00,
2013-01-30 14:38:00,47.5,35.9,32.89,WNW,296,6.0,9.0,64,0.00,OVC,OVC,0.00,WeatherDisplay:10.23,2013-01-30 22:38:00,
2013-01-30 14:47:00,47.5,35.5,32.89,WNW,302,3.0,10.0,63,0.00,OVC,OVC,0.00,WeatherDisplay:10.23,2013-01-30 22:47:00,
2013-01-30 14:53:00,47.6,35.7,32.89,WNW,299,3.0,10.0,63,0.00,OVC,OVC,0.00,WeatherDisplay:10.23,2013-01-30 22:53:00,
2013-01-30 15:02:00,47.8,35.8,32.89,WNW,286,3.0,9.0,63,0.00,OVC,OVC,0.00,WeatherDisplay:10.23,2013-01-30 23:02:00,
2013-01-30 15:08:00,48.1,36.1,32.89,WNW,290,7.0,10.0,63,0.00,OVC,OVC,0.00,WeatherDisplay:10.23,2013-01-30 23:08:00,
2013-01-30 15:17:00,48.1,35.7,32.89,West,279,3.0,12.0,62,0.00,OVC,OVC,0.00,WeatherDisplay:10.23,2013-01-30 23:17:00,
2013-01-30 15:23:00,48.1,35.7,32.89,West,277,5.0,8.0,62,0.00,OVC,OVC,0.00,WeatherDisplay:10.23,2013-01-30 23:23:00,
2013-01-30 15:32:00,48.1,35.7,32.89,WNW,287,1.0,3.0,62,0.00,OVC,OVC,0.00,WeatherDisplay:10.23,2013-01-30 23:32:00,
2013-01-30 15:38:00,48.0,35.6,32.89,WNW,292,2.0,6.0,62,0.00,OVC,OVC,0.00,WeatherDisplay:10.23,2013-01-30 23:38:00,
2013-01-30 15:47:00,47.8,35.4,32.89,WNW,284,2.0,8.0,62,0.00,OVC,OVC,0.00,WeatherDisplay:10.23,2013-01-30 23:47:00,
2013-01-30 15:53:00,47.7,35.3,32.89,WNW,292,7.0,12.0,62,0.00,OVC,OVC,0.00,WeatherDisplay:10.23,2013-01-30 23:53:00,
2013-01-30 16:02:00,47.3,35.4,32.89,WNW,297,5.0,9.0,63,0.00,OVC,OVC,0.00,WeatherDisplay:10.23,2013-01-31 00:02:00,
2013-01-30 16:08:00,47.2,35.2,32.89,WNW,299,8.0,13.0,63,0.00,OVC,OVC,0.00,WeatherDisplay:10.23,2013-01-31 00:08:00,
2013-01-30 16:17:00,46.9,35.4,32.89,WNW,297,7.0,10.0,64,0.00,OVC,OVC,0.00,WeatherDisplay:10.23,2013-01-31 00:17:00,
2013-01-30 16:22:00,46.7,35.6,32.89,WNW,292,5.0,10.0,65,0.00,OVC,OVC,0.00,WeatherDisplay:10.23,2013-01-31 00:22:00,
2013-01-30 16:32:00,46.6,35.1,32.89,NW,306,9.0,14.0,64,0.00,OVC,OVC,0.00,WeatherDisplay:10.23,2013-01-31 00:32:00,
2013-01-30 16:38:00,46.6,35.5,32.89,NW,310,10.0,12.0,65,0.00,OVC,OVC,0.00,WeatherDisplay:10.23,2013-01-31 00:38:00,
2013-01-30 16:47:00,46.8,35.2,32.89,NW,308,6.0,12.0,64,0.00,OVC,OVC,0.00,WeatherDisplay:10.23,2013-01-31 00:47:00,
2013-01-30 16:53:00,46.7,35.2,32.89,NW,311,5.0,14.0,64,0.00,OVC,OVC,0.00,WeatherDisplay:10.23,2013-01-31 00:53:00,
2013-01-30 17:02:00,46.3,34.8,32.89,WNW,294,7.0,15.0,64,0.00,OVC,OVC,0.00,WeatherDisplay:10.23,2013-01-31 01:02:00,
2013-01-30 17:08:00,46.2,35.1,32.89,WNW,300,6.0,15.0,65,0.00,OVC,OVC,0.00,WeatherDisplay:10.23,2013-01-31 01:08:00,
2013-01-30 17:17:00,45.8,34.7,32.89,WNW,294,7.0,14.0,65,0.00,OVC,OVC,0.00,WeatherDisplay:10.23,2013-01-31 01:17:00,
2013-01-30 17:23:00,45.5,34.8,32.89,WNW,295,5.0,10.0,66,0.00,OVC,OVC,0.00,WeatherDisplay:10.23,2013-01-31 01:23:00,
2013-01-30 17:32:00,45.0,34.7,32.89,NW,311,6.0,10.0,67,0.00,OVC,OVC,0.00,WeatherDisplay:10.23,2013-01-31 01:32:00,
2013-01-30 17:38:00,44.9,34.6,32.89,NW,318,6.0,8.0,67,0.00,OVC,OVC,0.00,WeatherDisplay:10.23,2013-01-31 01:38:00,
2013-01-30 17:47:00,44.4,34.5,32.89,NNW,335,3.0,5.0,68,0.00,OVC,OVC,0.00,WeatherDisplay:10.23,2013-01-31 01:47:00,
2013-01-30 17:53:00,44.2,34.3,32.89,NNW,337,1.0,3.0,68,0.00,CLR,CLR,0.00,WeatherDisplay:10.23,2013-01-31 01:53:00,
2013-01-30 18:02:00,44.5,34.6,32.89,NNW,337,0.0,3.0,68,0.00,CLR,CLR,0.00,WeatherDisplay:10.23,2013-01-31 02:02:00,
2013-01-30 18:08:00,44.5,34.6,32.89,North,352,2.0,5.0,68,0.00,CLR,CLR,0.00,WeatherDisplay:10.23,2013-01-31 02:08:00,
2013-01-30 18:16:00,44.2,34.3,32.89,NNW,334,3.0,3.0,68,0.00,CLR,CLR,0.00,WeatherDisplay:10.23,2013-01-31 02:16:00,
2013-01-30 18:22:00,44.1,34.2,32.89,NW,323,0.0,3.0,68,0.00,CLR,CLR,0.00,WeatherDisplay:10.23,2013-01-31 02:22:00,
2013-01-30 18:27:00,44.0,34.1,32.89,WNW,291,0.0,6.0,68,0.00,CLR,CLR,0.00,WeatherDisplay:10.23,2013-01-31 02:27:00,
2013-01-30 18:32:00,43.9,34.4,32.89,West,270,0.0,1.0,69,0.00,CLR,CLR,0.00,WeatherDisplay:10.23,2013-01-31 02:32:00,
2013-01-30 18:38:00,43.7,34.2,32.89,West,270,2.0,3.0,69,0.00,CLR,CLR,0.00,WeatherDisplay:10.23,2013-01-31 02:38:00,
2013-01-30 18:47:00,43.2,34.1,32.89,West,270,0.0,0.0,70,0.00,CLR,CLR,0.00,WeatherDisplay:10.23,2013-01-31 02:47:00,
2013-01-30 18:53:00,43.1,34.0,32.89,West,270,2.0,3.0,70,0.00,CLR,CLR,0.00,WeatherDisplay:10.23,2013-01-31 02:53:00,
2013-01-30 19:02:00,43.4,34.2,32.89,WNW,282,1.0,5.0,70,0.00,CLR,CLR,0.00,WeatherDisplay:10.23,2013-01-31 03:02:00,
2013-01-30 19:08:00,43.3,34.2,32.89,WNW,292,0.0,2.0,70,0.00,CLR,CLR,0.00,WeatherDisplay:10.23,2013-01-31 03:08:00,
2013-01-30 19:17:00,43.0,34.3,32.89,WNW,292,0.0,1.0,71,0.00,CLR,CLR,0.00,WeatherDisplay:10.23,2013-01-31 03:17:00,
2013-01-30 19:23:00,43.0,34.3,32.89,WNW,292,0.0,1.0,71,0.00,CLR,CLR,0.00,WeatherDisplay:10.23,2013-01-31 03:23:00,
2013-01-30 19:32:00,42.9,34.2,32.89,WNW,292,2.0,3.0,71,0.00,CLR,CLR,0.00,WeatherDisplay:10.23,2013-01-31 03:32:00,
2013-01-30 19:38:00,42.9,34.2,32.89,WNW,292,2.0,3.0,71,0.00,CLR,CLR,0.00,WeatherDisplay:10.23,2013-01-31 03:38:00,
2013-01-30 19:47:00,42.8,34.1,32.89,WNW,292,2.0,3.0,71,0.00,CLR,CLR,0.00,WeatherDisplay:10.23,2013-01-31 03:47:00,
2013-01-30 19:53:00,42.8,34.1,32.89,WNW,292,0.0,3.0,71,0.00,CLR,CLR,0.00,WeatherDisplay:10.23,2013-01-31 03:53:00,
2013-01-30 20:02:00,41.6,33.3,32.89,WNW,292,3.0,3.0,72,0.00,CLR,CLR,0.00,WeatherDisplay:10.23,2013-01-31 04:02:00,
2013-01-30 20:07:00,40.6,33.3,32.89,WNW,292,0.0,3.0,75,0.00,CLR,CLR,0.00,WeatherDisplay:10.23,2013-01-31 04:07:00,
2013-01-30 20:16:00,40.5,32.9,32.89,WNW,292,3.0,5.0,74,0.00,CLR,CLR,0.00,WeatherDisplay:10.23,2013-01-31 04:16:00,
2013-01-30 20:23:00,39.8,32.9,32.89,West,279,3.0,3.0,76,0.00,CLR,CLR,0.00,WeatherDisplay:10.23,2013-01-31 04:23:00,
2013-01-30 20:32:00,39.4,33.1,32.89,West,270,2.0,3.0,78,0.00,CLR,CLR,0.00,WeatherDisplay:10.23,2013-01-31 04:32:00,
2013-01-30 20:38:00,39.7,33.1,32.89,West,270,2.0,3.0,77,0.00,CLR,CLR,0.00,WeatherDisplay:10.23,2013-01-31 04:38:00,
2013-01-30 20:47:00,39.8,32.8,32.89,West,270,0.0,2.0,76,0.00,CLR,CLR,0.00,WeatherDisplay:10.23,2013-01-31 04:47:00,
2013-01-30 20:53:00,39.9,33.3,32.89,West,270,1.0,3.0,77,0.00,CLR,CLR,0.00,WeatherDisplay:10.23,2013-01-31 04:53:00,
2013-01-30 21:02:00,39.2,32.9,32.89,West,270,0.0,1.0,78,0.00,CLR,CLR,0.00,WeatherDisplay:10.23,2013-01-31 05:02:00,
2013-01-30 21:08:00,39.3,33.0,32.89,West,270,1.0,3.0,78,0.00,CLR,CLR,0.00,WeatherDisplay:10.23,2013-01-31 05:08:00,
2013-01-30 21:12:00,39.9,33.3,32.89,West,270,0.0,3.0,77,0.00,CLR,CLR,0.00,WeatherDisplay:10.23,2013-01-31 05:12:00,
2013-01-30 21:23:00,40.5,33.5,32.89,West,270,0.0,1.0,76,0.00,CLR,CLR,0.00,WeatherDisplay:10.23,2013-01-31 05:23:00,
2013-01-30 21:27:00,40.5,33.2,32.89,West,270,1.0,3.0,75,0.00,CLR,CLR,0.00,WeatherDisplay:10.23,2013-01-31 05:27:00,
2013-01-30 21:32:00,39.8,32.9,32.89,West,270,2.0,3.0,76,0.00,CLR,CLR,0.00,WeatherDisplay:10.23,2013-01-31 05:32:00,
2013-01-30 21:38:00,38.9,32.3,32.89,WSW,258,3.0,5.0,77,0.00,CLR,CLR,0.00,WeatherDisplay:10.23,2013-01-31 05:38:00,
2013-01-30 21:47:00,37.6,32.0,32.89,WSW,247,0.0,3.0,80,0.00,CLR,CLR,0.00,WeatherDisplay:10.23,2013-01-31 05:47:00,
2013-01-30 21:53:00,37.6,32.3,32.89,WSW,247,1.0,2.0,81,0.00,CLR,CLR,0.00,WeatherDisplay:10.23,2013-01-31 05:53:00,
2013-01-30 22:02:00,37.5,31.9,32.89,WSW,247,2.0,3.0,80,0.00,CLR,CLR,0.00,WeatherDisplay:10.23,2013-01-31 06:02:00,
2013-01-30 22:07:00,37.3,32.0,32.89,WSW,247,2.0,3.0,81,0.00,CLR,CLR,0.00,WeatherDisplay:10.23,2013-01-31 06:07:00,
2013-01-30 22:16:00,36.9,31.9,32.89,WSW,247,2.0,2.0,82,0.00,CLR,CLR,0.00,WeatherDisplay:10.23,2013-01-31 06:16:00,
2013-01-30 22:23:00,37.3,32.3,32.89,WSW,247,3.0,3.0,82,0.00,CLR,CLR,0.00,WeatherDisplay:10.23,2013-01-31 06:23:00,
2013-01-30 22:32:00,37.7,32.4,32.89,WSW,247,1.0,2.0,81,0.00,CLR,CLR,0.00,WeatherDisplay:10.23,2013-01-31 06:32:00,
2013-01-30 22:38:00,37.5,32.2,32.89,WSW,247,2.0,3.0,81,0.00,CLR,CLR,0.00,WeatherDisplay:10.23,2013-01-31 06:38:00,
2013-01-30 22:47:00,36.9,32.3,32.89,SSW,213,3.0,5.0,83,0.00,CLR,CLR,0.00,WeatherDisplay:10.23,2013-01-31 06:47:00,
2013-01-30 22:53:00,36.9,32.0,32.89,South,189,2.0,5.0,82,0.00,CLR,CLR,0.00,WeatherDisplay:10.23,2013-01-31 06:53:00,
2013-01-30 23:02:00,36.9,31.9,32.89,South,180,1.0,3.0,82,0.00,CLR,CLR,0.00,WeatherDisplay:10.23,2013-01-31 07:02:00,
2013-01-30 23:08:00,36.8,31.8,32.89,South,180,0.0,2.0,82,0.00,CLR,CLR,0.00,WeatherDisplay:10.23,2013-01-31 07:08:00,
2013-01-30 23:17:00,36.5,31.9,32.89,South,180,3.0,3.0,83,0.00,CLR,CLR,0.00,WeatherDisplay:10.23,2013-01-31 07:17:00,
2013-01-30 23:23:00,36.3,31.3,32.89,South,180,1.0,3.0,82,0.00,CLR,CLR,0.00,WeatherDisplay:10.23,2013-01-31 07:23:00,
2013-01-30 23:32:00,36.4,31.7,32.89,South,180,3.0,6.0,83,0.00,CLR,CLR,0.00,WeatherDisplay:10.23,2013-01-31 07:32:00,
2013-01-30 23:38:00,37.1,32.1,32.89,South,180,3.0,6.0,82,0.00,CLR,CLR,0.00,WeatherDisplay:10.23,2013-01-31 07:38:00,
2013-01-30 23:50:00,37.3,31.7,32.89,South,180,0.0,3.0,80,0.00,CLR,CLR,0.00,WeatherDisplay:10.23,2013-01-31 07:50:00,
2013-01-30 23:57:00,36.2,31.2,32.89,South,180,2.0,3.0,82,0.00,CLR,CLR,0.00,WeatherDisplay:10.23,2013-01-31 07:57:00,